Кочевая

Россия / Ханты-Мансийский автономный округ - Югра     62°26′48″N   73°06′42″E
темп.,
°C
ветер,
м/с
пор.,
м/с
влажн.,
%
обл.,
%
осадки,
мм/ч
давл.,
гПа
погр.,
м
6 марта, сб
сб623:00−10ю229796 0.4 99721
02:00−13ююв229987 0.1 99721
05:00−12юв229688 0.1 99721
08:00−11в239690 0.1 99630
11:00−9св339386 0.1 995182
14:00−8ссв349392 0.0 996254
17:00−11с339589 0.1 99721
20:00−14с349878 0.0 99722
7 марта, вс
вс723:00−17с349781 0.1 99920
02:00−19ссз339918 0.0 100020
05:00−20ссз2210049 0.0 100220
08:00−18сз129791 0.1 100420
11:00−14зюз239195 0.1 1005231
14:00−13зюз3593100 0.0 1007318
17:00−14зюз4495100 0.1 100861
20:00−18юз349945 0.0 101022
8 марта, пн
пн823:00−21юз4510063 0.0 101033
02:00−23зюз229915 0.0 100920
05:00−24юв22988 0.0 100820
08:00−22в339920 0.0 100620
11:00−17св459660 0.1 1003197
14:00−15с689492 0.1 1002305
17:00−17с699194 0.1 1002269
20:00−23ссз559671 0.0 100366
9 марта, вт
вт923:00−26сз569843 0.0 100577
02:00−31сз45970 0.0 100848
05:00−33сз34960 0.0 101019
08:00−33зсз22950 0.0 101219
11:00−28зюз11881 0.0 1013183
14:00−24юв228883 0.0 1012260
17:00−25в459468 0.0 101159
20:00−26всв589567 0.0 1008120
10 марта, ср
ср1023:00−23всв7109883 0.1 1005231
02:00−22всв71197100 0.6 1002280
05:00−23св71196100 1.1 1001284
08:00−25ссв699699 0.2 1002247
11:00−24с459494 0.2 1005238
14:00−22ссз349187 0.0 1007279
17:00−25зсз229575 0.0 100820
20:00−29с22980 0.0 100919